Regional Weather Roundup
Issued by NWS

Home | Current Version | Previous Version | Graphics & Text | Print | Product List | Glossary On
Versions: 1 2 3 4 5 6 7 8 9 10 11 12 13 14 15 16 17 18 19 20 21 22 23 24 25 26 27 28 29 30 31 32 33 34 35 36 37 38 39 40 41 42 43 44 45 46 47 48 49 50
000
ASUS43 KLMK 280710
RWRKY
KENTUCKY REGIONAL WEATHER ROUNDUP
NATIONAL WEATHER SERVICE LOUISVILLE KY
200 AM EST SUN DEC 28 2014

NOTE "FAIR" INDICATES FEW OR NO CLOUDS BELOW 12,000 FEET
WITH NO SIGNIFICANT WEATHER AND/OR OBSTRUCTIONS TO VISIBILITY.

KYZ001>023-026-027-061>063-070>075-280800-
WESTERN AND SOUTH CENTRAL KENTUCKY

CITY           SKY/WX    TMP DP  RH WIND       PRES   REMARKS
PADUCAH        CLOUDY    39  36  89 N12       30.15R WCI  32
HENDERSON      CLOUDY    37  34  87 N10       30.13F WCI  30
OWENSBORO      CLOUDY    40  37  89 N10       30.12R WCI  33
HOPKINSVILLE   CLOUDY    45  45 100 NW5       30.08R
BOWLING GREEN  LGT RAIN  49  46  90 SW5       30.08S FOG
GLASGOW        LGT RAIN  47  47 100 CALM      30.07F
$$

KYZ024-025-028>034-038-045-046-053-280800-
NORTH CENTRAL KENTUCKY

CITY           SKY/WX    TMP DP  RH WIND       PRES   REMARKS
LOUISVILLE/SDF LGT RAIN  48  47  96 SW5       30.04S
LOUISVILLE/LOU LGT RAIN  48  47  96 S5        30.04S FOG
FORT KNOX      CLOUDY    46  46 100 W5        30.04S
$$

KYZ035>037-039>044-047>052-055>060-089>105-280800-
NORTHEAST KENTUCKY

CITY           SKY/WX    TMP DP  RH WIND       PRES   REMARKS
LEXINGTON      CLOUDY    47  46  97 SW7       30.04F FOG
COVINGTON      LGT RAIN  43  39  87 N13       30.02F
FRANKFORT      LGT RAIN  47  45  93 SW6       30.04F
$$

KYZ054-064>069-076>088-106>120-280800-
SOUTHEAST KENTUCKY

CITY           SKY/WX    TMP DP  RH WIND       PRES   REMARKS
JACKSON        LGT RAIN  46  43  89 SW6       30.07S FOG
LONDON         LGT RAIN  47  42  83 CALM      30.08S
SOMERSET       DRIZZLE   45  45 100 CALM      30.10S
MIDDLESBORO    CLOUDY    48  45  87 CALM      30.07S
MONTICELLO     CLOUDY    48  46  93 CALM      30.10F FOG
$$




USA.gov is the U.S. government's official web portal to all federal, state and local government web resources and services.